Juneau, AK

4:55 PM AKDT on June 26, 2017 (GMT -0800)
Juneau International

Weather History for PAJN - May, 2013

Change the Weather History Date:

Monday, May 6, 2013

  Actual Average Record
Temperature  
Mean Temperature 46 °F 46 °F  
Max Temperature 50 °F 54 °F 75 °F (1981)
Min Temperature 41 °F 38 °F 26 °F (1957)
Degree Days  
Heating Degree Days 19 19  
Month to date heating degree days 123 118  
Since 1 July heating degree days 8140 7646  
Cooling Degree Days 0 0  
Month to date cooling degree days 0 0  
Year to date cooling degree days 0 0  
Moisture  
Dew Point 37 °F    
Average Humidity 77    
Maximum Humidity 93    
Minimum Humidity 61    
Precipitation  
Precipitation 0.01 in 0.10 in 1.10 in (1965)
Month to date precipitation 2.52 0.62  
Year to date precipitation 25.56 16.82  
Sea Level Pressure  
Sea Level Pressure 30.15 in    
Wind  
Wind Speed 5 mph (WNW)    
Max Wind Speed 14 mph    
Max Gust Speed 17 mph    
Visibility 10 miles    
Events Rain    
T = Trace of Precipitation, MM = Missing Value Source: NWS Daily Summary

Daily Weather History Graph

Daily Weather History Graph

Search for Another Location

Airport or City:

Trip Planner

Search our weather history database for the weather conditions in past years. The results will help you decide how hot, cold, wet, or windy it might be!

Date:

Astronomy

May. 06, 2013 Rise Set
Actual Time 4:51 AM AKDT 9:00 PM AKDT
Civil Twilight 3:59 AM AKDT 9:52 PM AKDT
Nautical Twilight 2:39 AM AKDT 11:14 PM AKDT
Astronomical Twilight 1:27 AM AKDT Sun does not set
Moon 3:40 AM AKDT (5/6) 5:32 PM AKDT (5/6)
Length of Visible Light 17h 53m
Length of Day
16h 09m
Waning Crescent, 10% of the Moon is Illuminated
May 6
Waning Crescent
May 9
New
May 17
First Quarter
May 24
Full
May 31
Last Quarter

Hourly Weather History & Observations

Time (AKDT) Temp. Windchill Dew Point Humidity Pressure Visibility Wind Dir Wind Speed Gust Speed Precip Events Conditions
12:53 AM 43.0 °F - 39.9 °F 89% 30.05 in 10.0 mi Calm Calm - N/A   Overcast
1:53 AM 41.0 °F 39.0 °F 39.9 °F 96% 30.04 in 10.0 mi WSW 3.5 mph - N/A   Overcast
2:53 AM 41.0 °F - 39.9 °F 96% 30.04 in 10.0 mi Calm Calm - N/A   Overcast
3:53 AM 41.0 °F 38.0 °F 39.9 °F 96% 30.05 in 10.0 mi WSW 4.6 mph - 0.00 in Rain Light Rain
4:53 AM 42.1 °F 40.2 °F 39.9 °F 92% 30.06 in 10.0 mi NW 3.5 mph - 0.01 in Rain Light Rain
5:53 AM 41.0 °F 37.1 °F 37.0 °F 86% 30.07 in 10.0 mi West 5.8 mph - 0.00 in   Overcast
6:37 AM 42.1 °F 40.2 °F 39.9 °F 92% 30.08 in 10.0 mi West 3.5 mph - 0.00 in   Mostly Cloudy
6:53 AM 42.1 °F 39.2 °F 39.9 °F 92% 30.09 in 10.0 mi NNW 4.6 mph - 0.00 in   Mostly Cloudy
7:53 AM 43.0 °F 39.5 °F 37.9 °F 82% 30.11 in 10.0 mi WNW 5.8 mph - N/A   Mostly Cloudy
8:53 AM 43.0 °F 38.2 °F 37.0 °F 80% 30.12 in 10.0 mi NW 8.1 mph - N/A   Mostly Cloudy
9:53 AM 45.0 °F 41.2 °F 37.0 °F 74% 30.13 in 10.0 mi WNW 6.9 mph - N/A   Mostly Cloudy
10:53 AM 46.0 °F 43.1 °F 37.9 °F 73% 30.14 in 10.0 mi NW 5.8 mph - N/A   Mostly Cloudy
11:53 AM 46.9 °F - 36.0 °F 66% 30.16 in 10.0 mi WNW 9.2 mph - 0.00 in Rain Light Rain
12:53 PM 48.0 °F - 35.1 °F 61% 30.17 in 10.0 mi NW 4.6 mph - 0.00 in   Mostly Cloudy
1:53 PM 48.9 °F - 37.0 °F 64% 30.17 in 10.0 mi NW 9.2 mph - N/A   Mostly Cloudy
2:53 PM 48.0 °F - 36.0 °F 63% 30.19 in 10.0 mi NNW 6.9 mph - N/A   Overcast
3:53 PM 48.9 °F - 35.1 °F 59% 30.20 in 10.0 mi West 11.5 mph - N/A   Overcast
4:53 PM 48.9 °F - 34.0 °F 56% 30.20 in 10.0 mi West 10.4 mph - N/A   Overcast
5:53 PM 48.0 °F - 33.1 °F 56% 30.21 in 10.0 mi West 8.1 mph - N/A   Overcast
6:53 PM 46.9 °F - 35.1 °F 63% 30.21 in 10.0 mi SE 3.5 mph - 0.00 in Rain Light Rain
7:53 PM 46.0 °F 43.1 °F 37.0 °F 71% 30.22 in 10.0 mi ENE 5.8 mph - 0.00 in Rain Light Rain
8:53 PM 44.1 °F - 39.0 °F 82% 30.23 in 10.0 mi Calm Calm - 0.00 in   Mostly Cloudy
9:53 PM 41.0 °F 39.0 °F 37.0 °F 86% 30.24 in 10.0 mi SW 3.5 mph - N/A   Mostly Cloudy
10:53 PM 39.0 °F 36.8 °F 37.0 °F 93% 30.24 in 10.0 mi SSE 3.5 mph - N/A   Mostly Cloudy
11:53 PM 37.9 °F - 35.1 °F 89% 30.24 in 10.0 mi Calm Calm - N/A   Mostly Cloudy